Location: Morisset
(33.1080°S, 151.4871°E)
Time: 08:12:51
(UTC+00:00)

Cosmos 2278 Rocket - Pass Details

Date: 29 October 2020
Orbit: 840 x 847 km, 71.0° (Epoch: 27 November)

Event Time Altitude Azimuth Distance (km) Brightness Sun altitude
Exits shadow 15:36:36 26° 199° (SSW) 1,635 3.9 -35.2°
Drops below altitude 10° 15:39:27 10° 177° (S) 2,494 5.2 -34.9°
Sets 15:42:07 0° 168° (SSE) 3,434 6.2 -34.5°
